Regional Weather Roundup
Issued by NWS

Home | Current Version | Previous Version | Text Only | Print | Product List | Glossary Off
Versions: 1 2 3 4 5 6 7 8 9 10 11 12 13 14 15 16 17 18 19 20 21 22 23 24 25 26 27 28 29 30 31 32 33 34 35 36 37 38 39 40 41 42 43 44 45 46 47 48 49 50

000
ASUS45 KTFX 261604
RWRMT
MONTANA HOURLY WEATHER ROUNDUP
NATIONAL WEATHER SERVICE GREAT FALLS MT
904 AM MST WED NOV 26 2014

NOTE: "FAIR" INDICATES FEW OR NO CLOUDS BELOW 12000 FEET WITH NO
SIGNIFICANT WEATHER AND/OR OBSTRUCTIONS TO VISIBILITY.

* THESE STATIONS ARE NOT UNDER NWS QUALITY CONTROL. THEY DO NOT
   REPORT WEATHER SUCH AS PRECIPITATION OR FOG.

MTZ001>007-043-261700-
WEST OF THE DIVIDE
CITY           SKY/WX    TMP DP  RH WIND       PRES   REMARKS
KALISPELL      LGT SNOW  30  30 100 CALM      30.15R VSB 1/2
MISSOULA       FOG       32  32 100 CALM      30.17R VSB 1/2
BUTTE          CLOUDY    28  27  96 CALM      30.11R
MULLAN PASS    LGT RAIN  34  32  92 NW7       30.10R VSB M1/4 WCI  28
* ESSEX        N/A       29  27  92 N/A        N/A
* LINCOLN      N/A       28  27  96 S3         N/A
* LOOKOUT PASS N/A       36  35  96 NE5G10     N/A   WCI  32
* POLSON       N/A       30  30 100 N/A        N/A
* RONAN APT    CLOUDY    30  30 100 N/A        N/A
* SEELEY LAKE  N/A       29  28  96 N/A        N/A
* THOMP F APT  CLOUDY    26  25  96 NE1G6      N/A
* YAAK HILL    N/A       32  30  92 N/A        N/A
$$

MTZ008-052>055-261700-
SOUTHWEST MONTANA
CITY           SKY/WX    TMP DP  RH WIND       PRES   REMARKS
BOZEMAN        PTSUNNY   27  27 100 CALM      30.14R
DILLON         PTCLDY    45  30  56 SW20G31   30.12R
* W YELLOWSTON PTSUNNY   35  32  89 SW7G15     N/A   WCI  29
* ENNIS APT    PTCLDY    43  32  65 S3         N/A
* THREE FORKS  PTCLDY    28   7  41 N/A        N/A
* BOULDER HILL N/A       25  23  92 S11        N/A   WCI  14
* MONIDA PASS  N/A       27  27 100 SE12       N/A   WCI  16
* RAYNOLDS PAS N/A       40  32  73 SW12G17    N/A   WCI  33
* WHITEHALL    N/A       28  27  96 N/A        N/A
* WISE RIVER   N/A       41  31  68 NW14G20    N/A
$$

MTZ009>010-012-014-046-048-049-054-261700-
EAST SLOPES AND CENTRAL MONTANA
CITY           SKY/WX    TMP DP  RH WIND       PRES   REMARKS
CUT BANK       FOG       27  25  92 SE8       30.11S WCI  19
GREAT FALLS    LGT SNOW  30  28  92 CALM      30.13S VSB 3/4
HELENA         LGT SNOW  30  28  92 CALM      30.12S VSB 3/4
MALMSTROM AFB  LGT SNOW  28  28 100 NE2       30.16S VSB 1 3/4
* DEARBORN     N/A       31  30  96 N/A        N/A
* EAST GLACIER N/A       24  23  96 S6         N/A   WCI  17
* MONARCH      N/A       24  21  88 N/A        N/A
* PENDROY      N/A       27  27 100 SW2        N/A
* ROGERS PASS  N/A       27  23  85 VRB2       N/A
* SAINT MARY   N/A       25  22  88 S2         N/A
* SWEET GRASS  N/A       26  26 100 S12        N/A   WCI  15
$$

MTZ011-013-016-021-035-040-045-047-050-051-261700-
NORTH CENTRAL MONTANA
CITY           SKY/WX    TMP DP  RH WIND       PRES   REMARKS
HAVRE          LGT SNOW  27  25  92 E7        30.22R VSB 3    WCI  19
LEWISTOWN      LGT SNOW  27  25  92 SE5       30.15R VSB 2 1/2 WCI  21
* N BAR RANCH  FOG       25  23  92 E6        30.15R VSB 3    WCI  18
* CHESTER      N/A       27  25  92 SE3        N/A
* DENTON       N/A       28  27  96 E4         N/A
* GEYSER       N/A       26  24  92 NE2        N/A
* JUDITH GAP   N/A       24  24 100 SE5        N/A   WCI  18
* LOMA         N/A       29  29 100 NE6        N/A   WCI  23
$$

MTZ017>020-022>027-061-062-261700-
NORTHEAST MONTANA
CITY           SKY/WX    TMP DP  RH WIND       PRES   REMARKS
GLASGOW        CLOUDY    21  18  88 SE9       30.27R WCI  11
GLENDIVE       CLOUDY    19  16  88 NE12      30.29R WCI   6
JORDAN         CLOUDY    25  23  92 E6        30.23S WCI  18
SIDNEY         CLOUDY    18  10  71 NE5       30.34R WCI  11
WOLF POINT     LGT SNOW  19  14  81 E7        30.33R WCI  10
* BEAVER HILL  N/A       18  16  92 VRB5       N/A   WCI  11
* CIRCLE       N/A       22  20  92 NE6        N/A   WCI  14
* LINDSAY DVD  N/A       19  17  92 N2         N/A
* NAVAJO       N/A        8   5  87 NE6G12     N/A   WCI  -2
* SACO         N/A       23  19  85 E9         N/A   WCI  13
$$

MTZ028>042-056>058-261700-
SOUTHCENTRAL AND SOUTHEAST MONTANA
CITY           SKY/WX    TMP DP  RH WIND       PRES   REMARKS
BAKER          LGT SNOW  25  21  85 NW6       30.23R VSB 1    WCI  18
BILLINGS       LGT SNOW  28  27  96 S3        30.19R VSB 3/4
LIVINGSTON     CLOUDY    27  25  92 CALM      30.12S
MILES CITY     LGT SNOW  28  25  89 NE6       30.24R VSB 1 3/4 WCI  21
* LAUREL APT   CLOUDY    28  21  75 N/A        N/A
* ALZADA       N/A       28  25  89 W3         N/A
* HYSHAM       N/A       28  26  92 W6         N/A   WCI  21
* LAME DEER    N/A       25  24  96 W6         N/A   WCI  18
* REED POINT   N/A       28  27  96 E1         N/A
* ROSCOE HILL  N/A       24  21  88 N/A        N/A
$$

REGIONAL REPORTS...DAKOTAS
CITY           SKY/WX    TMP DP  RH WIND       PRES   REMARKS
WILLISTON      CLOUDY    10   3  73 N9        30.34R WCI  -3
DICKINSON      CLOUDY    18  14  84 NE5       30.24R WCI  11
BEACH          LGT SNOW  18  18 100 N8        30.27R VSB 3    WCI   8
CROSBY         LGT SNOW   0  -4  83 N5        30.37R WCI -11
BISMARCK       LGT SNOW   9   3  76 NE5       30.37R VSB 2
GRAND FORKS    CLOUDY     0  -8  68 N15       30.44R WCI -19
FARGO          CLOUDY     3  -2  79 N16       30.37R WCI -16
BUFFALO SD     CLOUDY    27  21  78 SW7       30.15R WCI  19
RAPID CITY     CLOUDY    25  21  85 S7        30.24R WCI  17
$$

REGIONAL REPORTS...WYOMING/IDAHO/WASHINGTON
CITY           SKY/WX    TMP DP  RH WIND       PRES   REMARKS
GILLETTE       LGT SNOW  27  23  85 W5        30.18R VSB 2 1/2 WCI  21
SHERIDAN       LGT SNOW  28  25  89 CALM      30.18S VSB 1
CODY           PTSUNNY   23  21  92 CALM      30.12S
YELLOWSTONE LA CLOUDY    32  28  85 W7        30.17R WCI  25
SALMON         CLOUDY    30  30 100 CALM      30.21R VSB M1/4
MULLAN PASS    LGT RAIN  34  32  92 NW7       30.10S VSB M1/4 WCI  28
SAND POINT     FOG       32  32 100 CALM      30.17R
SPOKANE        FOG       36  34  92 S6        30.14S VSB M1/4 WCI  31

$$




USA.gov is the U.S. government's official web portal to all federal, state and local government web resources and services.